Location: Newark
(5.0949°S, 42.8042°W)
Time: 04:38:09
(UTC+00:00)

Envisat - Visible Passes

Search period start: 19 September 2019 00:00
Search period end: 29 September 2019 00:00
Orbit: 764 x 766 km, 98.1° (Epoch: 18 September)

Date Brightness Start Highest point End Pass type
(mag) Time Alt. Az. Time Alt. Az. Time Alt. Az.
19 Sep 2.9 21:28:20 10° SSE 21:33:26 83° ENE 21:38:31 10° N visible
20 Sep 5.8 22:32:17 10° SW 22:35:28 17° WSW 22:38:38 10° WNW visible
21 Sep 4.1 21:54:00 10° S 21:58:52 47° WSW 22:03:43 10° NNW visible
22 Sep 3.0 21:17:11 10° SSE 21:22:13 60° ENE 21:27:11 10° N visible
23 Sep 6.6 08:16:05 10° E 08:17:16 11° ESE 08:18:27 10° ESE visible
23 Sep 5.4 22:20:21 10° SSW 22:24:16 23° WSW 22:28:11 10° NW visible
24 Sep 3.4 21:42:36 10° S 21:47:39 65° WSW 21:52:39 10° NNW visible
25 Sep 3.3 21:06:09 10° SSE 21:10:59 44° ENE 21:15:45 10° N visible
25 Sep 6.2 22:48:41 10° WSW 22:49:38 10° WSW 22:50:34 10° W visible
26 Sep 4.9 22:08:38 10° SSW 22:13:04 31° WSW 22:17:28 10° NW visible
27 Sep 3.0 21:31:19 10° S 21:36:25 88° WSW 21:41:29 10° NNW visible
28 Sep 6.0 22:35:39 10° SW 22:38:26 15° WSW 22:41:13 10° WNW visible
